Location: Stonelick Lake State Park
(39.2170°N, 84.0850°W)
Time: 04:50:08
(UTC-05:00)

Daily predictions for brighter satellites

Satellite Brightness Start Highest point End
(mag) Time Altitude Azimuth Time Altitude Azimuth Time Altitude Azimuth
CENTAUR R/B 4.2 04:41:20 23° NNE 04:41:20 23° NNE 04:44:04 10° NNE
Lacrosse 5 3.3 04:44:47 34° E 04:44:47 34° E 04:48:13 10° NE
Cosmos 2074 Rocket 4.0 05:03:14 10° S 05:09:30 82° E 05:15:47 10° N
Tiangong 2 4.3 05:13:30 13° ENE 05:13:30 13° ENE 05:13:56 10° ENE
Cosmos 2369 Rocket 3.6 05:14:29 17° N 05:18:10 34° ENE 05:23:17 10° ESE
Cosmos 1603 3.5 05:19:00 72° SSW 05:19:37 88° WNW 05:25:19 10° NNE
H-2A ROCKET BODY 4.5 05:16:36 22° SW 05:20:21 28° S 05:41:48 10° SE
Cosmos 2184 Rocket 3.8 05:21:36 10° SSW 05:27:44 75° W 05:33:58 10° N
Cosmos 44 4.3 05:24:28 10° S 05:29:38 49° ESE 05:34:41 10° NE
NOAA 6 4.2 05:25:18 10° NNE 05:30:25 69° ESE 05:35:32 10° S
Cosmos 1536 4.1 05:36:24 10° SSE 05:40:08 40° E 05:43:54 10° NNE
Cosmos 1943 3.5 05:37:08 10° S 05:42:40 65° ESE 05:48:16 10° NNE
Cosmos 2154 Rocket 4.1 05:37:32 10° S 05:43:43 76° E 05:49:54 10° N
Cosmos 921 Rocket 4.5 05:47:21 25° SSW 05:47:21 25° SSW 05:49:32 10° SSW
Feng Yun 1-1 Rocket 4.3 05:40:47 10° N 05:46:11 51° WNW 05:51:25 10° SW
Cosmos 1633 2.5 05:46:17 10° S 05:49:56 86° E 05:53:35 10° N
Abrixas rocket 3.2 05:55:52 38° NNE 05:55:52 38° NNE 05:58:22 10° NE
Cosmos 1943 Rocket 3.7 05:51:38 10° N 05:56:32 31° ENE 06:01:23 10° ESE
DELTA 2 R/B(2) 4.1 05:59:40 69° ESE 05:59:40 69° ESE 06:01:25 10° E
Okean 1 Rocket 2.9 05:56:57 10° SSW 06:01:19 66° W 06:05:40 10° N
Cosmos 2056 Rocket 3.5 05:59:36 35° NW 06:01:25 53° WSW 06:06:21 10° S
CZ-3 R/B 3.4 05:52:19 10° SW 06:02:52 26° S 06:07:03 10° SE
SL-16 R/B 4.2 06:09:01 12° NNW 06:09:01 12° NNW 06:09:41 10° NNW
Lacrosse 4 Rocket 3.8 06:03:52 10° N 06:06:45 18° NE 06:09:35 10° E
COSMO-SKYMED 1 2.5 06:03:58 10° S 06:08:16 66° W 06:11:25 18° NNW
PSLV R/B 4.1 06:12:06 33° SW 06:12:42 36° SSW 06:15:51 10° SE
USA 215 3.2 06:06:30 10° NE 06:12:59 68° NW 06:19:26 10° WSW
Ariane Rocket 2.9 06:08:24 10° NNE 06:13:29 87° WNW 06:18:33 10° SSW
CZ-2C R/B 4.5 06:11:48 10° NNE 06:16:22 31° E 06:20:48 10° SSE
Cosmos 44 Rocket 3.8 06:13:51 23° WSW 06:16:28 39° NW 06:21:16 10° NNE
DMSP B5D1-3 4.4 06:11:36 10° S 06:16:44 73° WSW 06:21:54 10° NNW
Cosmos 1602 4.3 06:14:34 10° SW 06:18:13 36° WNW 06:21:54 10° N
SL-24 DEB 4.2 06:17:59 10° S 06:22:45 81° W 06:27:35 10° N
Meteor 1-19 Rocket 4.4 06:19:40 10° NNW 06:25:21 55° W 06:30:56 10° S
Okean 1-7 Rocket 3.7 06:21:27 12° NNW 06:25:23 48° W 06:29:36 10° SSW
Cosmos 1300 Rocket 4.4 06:21:53 10° SW 06:25:40 28° WNW 06:29:28 10° NNW
Lacrosse 5 2.5 06:24:03 23° W 06:26:27 34° NW 06:31:06 10° NNE
CSL-04 DEB 4.4 06:23:23 10° N 06:27:24 58° WNW 06:31:30 10° SSW
Cosmos 2263 4.2 06:22:36 10° NNW 06:28:15 89° ENE 06:33:50 10° SSE
Cosmos 1892 Rocket 4.1 06:24:57 10° N 06:29:25 62° E 06:33:50 10° SSE
Meteor 1-28 Rocket 3.1 06:26:10 10° S 06:29:55 66° W 06:33:44 10° NNW
CENTAUR R/B 4.3 06:28:31 13° NW 06:30:11 14° NNW 06:33:39 10° N
Cosmos 1900 4.5 06:26:05 11° NNW 06:30:45 73° ENE 06:35:41 10° SE
Helios 1B rocket 4.0 06:28:45 10° SE 06:32:32 35° ENE 06:36:20 10° N
Cosmos 2218 Rocket 4.4 06:27:34 10° S 06:33:56 72° E 06:40:18 10° NNE
Meteor 1-11 Rocket 4.1 06:28:51 10° SSW 06:34:22 42° WNW 06:39:47 10° N
Cosmos 1295 Rocket 4.4 06:29:18 10° SSW 06:35:36 74° W 06:41:52 10° N
Nadezhda 3 Rocket 4.3 06:32:04 10° NNW 06:38:03 44° W 06:44:01 10° SSW
Cosmos 1340 2.7 06:38:04 10° N 06:41:53 87° E 06:45:39 10° S
IDEFIX/ARIANE 42P 3.4 06:37:32 10° NNE 06:42:38 54° E 06:47:43 10° S
GRACE-2 3.7 06:40:22 10° N 06:43:09 70° W 06:45:54 10° S
Cosmos 1461 4.3 06:39:14 10° S 06:43:20 43° ESE 06:47:20 10° NE
GRACE-1 3.7 06:40:48 10° N 06:43:34 67° W 06:46:19 10° S
CSL-04 Rocket 3.7 06:38:32 10° N 06:43:59 59° WNW 06:49:21 10° SSW
Tiangong 2 1.0 06:45:33 18° WNW 06:47:44 77° NNE 06:50:52 10° ESE
CSL-04 Debris 4.2 06:44:41 10° N 06:50:05 62° WNW 06:55:28 10° SSW
Cosmos 1452 Rocket 3.8 06:45:34 10° NNW 06:50:35 46° WSW 06:55:37 10° S
Meteor 1-23 Rocket 4.3 06:45:37 10° NNW 06:51:00 53° W 06:56:22 10° S
Cosmos 2084 3.1 06:48:01 10° SW 06:51:55 71° NW 06:55:42 10° NNE
Cosmos 1455 Rocket 3.1 06:48:28 10° S 06:52:47 87° E 06:57:08 10° N
COSMOS 2406 4.1 06:51:37 10° S 06:57:07 56° ESE 07:02:40 10° NNE
Meteor 2-4 Rocket 4.2 06:53:49 10° NNW 06:58:55 38° W 07:04:07 10° SSW
Cosmos 1727 Rocket 4.2 06:53:10 10° N 06:59:22 78° E 07:05:34 10° S
NOSS 3-1 (C) 4.1 06:53:52 10° SSW 06:59:29 59° ESE 07:05:43 10° NE
Cosmos 2369 Rocket 3.0 06:57:04 10° NW 07:02:07 33° WSW 07:07:08 10° SSW
Okean 2 3.8 07:01:49 10° NNW 07:05:46 42° W 07:09:41 10° SSW
Cosmos 839 Rocket 4.1 06:59:16 10° NNW 07:05:50 89° ENE 07:11:58 10° SSE
USA 129 3.4 07:05:46 10° SW 07:07:19 18° W 07:08:56 10° NW
Meteor 1-5 Rocket 4.4 07:02:17 10° SSW 07:07:23 43° WNW 07:12:26 10° N
CORIOLIS 4.3 07:04:00 10° NNE 07:09:22 80° ESE 07:14:43 10° S
Cosmos 44 4.5 07:06:43 10° WSW 07:11:07 25° NW 07:15:23 10° N
SMAP 3.0 07:09:05 10° N 07:13:44 72° WNW 07:18:21 10° SSW
